Lake Eufaula Weather Center

Moon Phase Calendar



Lake Eufaula Water Level
Online Cameras

 


      

Current Conditions in Georgetown
2/7/2023 1:12:02 PM

70°F
Feels Like 69
Clouds
Humidity
48%
Pressure
30.3"
Wind
7 mph (SSE)
Dew Point
49°F
UV Index
5/10 (Moderate)
Visibility
6 mi

Hourly Forecast

Date & Time Tue, Feb 7
1:00 PM
Tue, Feb 7
2:00 PM
Tue, Feb 7
3:00 PM
Tue, Feb 7
4:00 PM
Tue, Feb 7
5:00 PM
Tue, Feb 7
6:00 PM
Tue, Feb 7
7:00 PM
Tue, Feb 7
8:00 PM
Tue, Feb 7
9:00 PM
Tue, Feb 7
10:00 PM
Tue, Feb 7
11:00 PM
Wed, Feb 8
12:00 AM
Wed, Feb 8
1:00 AM
Wed, Feb 8
2:00 AM
Wed, Feb 8
3:00 AM
Wed, Feb 8
4:00 AM
Wed, Feb 8
5:00 AM
Wed, Feb 8
6:00 AM
Wed, Feb 8
7:00 AM
Wed, Feb 8
8:00 AM
Wed, Feb 8
9:00 AM
Wed, Feb 8
10:00 AM
Wed, Feb 8
11:00 AM
Wed, Feb 8
12:00 PM
Wed, Feb 8
1:00 PM
Wed, Feb 8
2:00 PM
Wed, Feb 8
3:00 PM
Wed, Feb 8
4:00 PM
Wed, Feb 8
5:00 PM
Wed, Feb 8
6:00 PM
Wed, Feb 8
7:00 PM
Wed, Feb 8
8:00 PM
Wed, Feb 8
9:00 PM
Wed, Feb 8
10:00 PM
Wed, Feb 8
11:00 PM
Thu, Feb 9
12:00 AM
Thu, Feb 9
1:00 AM
Thu, Feb 9
2:00 AM
Thu, Feb 9
3:00 AM
Thu, Feb 9
4:00 AM
Thu, Feb 9
5:00 AM
Thu, Feb 9
6:00 AM
Thu, Feb 9
7:00 AM
Thu, Feb 9
8:00 AM
Thu, Feb 9
9:00 AM
Thu, Feb 9
10:00 AM
Thu, Feb 9
11:00 AM
Thu, Feb 9
12:00 PM
Condition
Clouds

Clouds

Clouds

Clouds

Clouds

Clouds

Clouds

Clouds

Clouds

Clouds

Clouds

Clouds

Clouds

Clouds

Clouds

Clouds

Clouds

Clouds

Clouds

Clouds

Clouds

Clouds

Clouds

Clouds

Clouds

Clouds

Clouds

Clouds

Clouds

Clouds

Clouds

Clouds

Clouds

Clouds

Clouds

Clouds

Clouds

Clouds

Clouds

Clouds

Clouds

Clouds

Clouds

Clouds

Clouds

Clouds

Clouds

Clouds
Temperature 70°F70°F70°F69°F67°F64°F63°F63°F62°F62°F62°F60°F58°F57°F57°F57°F56°F56°F56°F56°F60°F65°F69°F72°F74°F75°F75°F73°F72°F69°F67°F65°F65°F64°F63°F62°F62°F61°F60°F60°F59°F59°F60°F61°F62°F64°F66°F68°F
Feels Like 69°F69°F69°F68°F66°F63°F62°F62°F61°F61°F61°F59°F57°F56°F56°F56°F55°F55°F54°F55°F59°F64°F69°F71°F73°F75°F75°F73°F71°F69°F66°F65°F64°F64°F62°F62°F62°F60°F60°F59°F59°F59°F59°F60°F62°F63°F66°F68°F
Cloudiness 62%60%62%70%77%85%87%100%100%100%100%100%100%58%79%85%74%79%82%100%70%79%72%76%79%73%81%87%91%92%94%100%100%100%100%100%100%100%100%100%100%100%100%100%100%100%100%100%
Visibility 6 mi6 mi6 mi6 mi6 mi6 mi6 mi6 mi6 mi6 mi6 mi6 mi6 mi6 mi6 mi6 mi6 mi6 mi6 mi6 mi6 mi6 mi6 mi6 mi6 mi6 mi6 mi6 mi6 mi6 mi6 mi6 mi6 mi6 mi6 mi6 mi6 mi6 mi6 mi6 mi6 mi6 mi6 mi6 mi6 mi6 mi6 mi6 mi
Precipitation 0%0%0%0%0%0%0%0%0%0%0%0%0%0%0%0%0%0%0%0%0%0%0%0%0%0%0%0%0%0%0%0%0%0%0%0%0%0%0%0%0%0%0%0%0%0%6%12%
Humidity 48%48%49%53%61%68%67%69%71%70%67%68%69%69%69%71%73%74%75%76%68%62%59%56%54%53%53%58%64%69%72%72%72%72%75%75%74%76%77%79%81%82%82%81%78%76%73%73%
Dew Point 49°F49°F50°F51°F53°F53°F52°F52°F52°F52°F50°F49°F48°F47°F47°F47°F48°F48°F48°F48°F50°F51°F54°F55°F56°F56°F57°F58°F58°F58°F57°F56°F55°F55°F55°F54°F53°F53°F53°F53°F53°F54°F54°F55°F55°F56°F57°F59°F
Pressure 30.3"30.3"30.27"30.24"30.24"30.24"30.24"30.24"30.27"30.27"30.27"30.27"30.24"30.24"30.24"30.21"30.21"30.24"30.24"30.27"30.27"30.27"30.27"30.27"30.21"30.21"30.18"30.18"30.15"30.15"30.18"30.18"30.21"30.21"30.18"30.15"30.15"30.15"30.15"30.15"30.15"30.15"30.15"30.12"30.15"30.15"30.15"30.15"
Wind Speed 7 mph7.1 mph7 mph5.7 mph4.2 mph3.7 mph4.4 mph4.9 mph4.9 mph4.6 mph4.8 mph5.1 mph5.4 mph4.9 mph5 mph5.2 mph4.8 mph4.9 mph4.7 mph5.1 mph5 mph6.8 mph8.1 mph8.9 mph9.6 mph9.6 mph9.6 mph7.6 mph5.5 mph5.4 mph6 mph6.8 mph6.7 mph6.4 mph7.1 mph7.5 mph7.1 mph7.1 mph7.4 mph6.8 mph6.2 mph5.9 mph7.8 mph11.8 mph11.2 mph10.1 mph10.5 mph10.7 mph
Wind
Direction
162°
SSE
168°
SSE
170°
S
163°
SSE
149°
SSE
152°
SSE
135°
SE
143°
SE
156°
SSE
154°
SSE
157°
SSE
162°
SSE
153°
SSE
159°
SSE
157°
SSE
149°
SSE
150°
SSE
153°
SSE
151°
SSE
148°
SSE
148°
SSE
154°
SSE
160°
SSE
162°
SSE
163°
SSE
166°
SSE
167°
SSE
170°
S
159°
SSE
144°
SE
148°
SSE
156°
SSE
167°
SSE
169°
S
163°
SSE
167°
SSE
170°
S
165°
SSE
164°
SSE
170°
S
169°
S
171°
S
164°
SSE
160°
SSE
173°
S
175°
S
187°
S
203°
SSW

Daily Forecast

Date High Low Precip. Humidity
Today
Feb 7

Clouds
70 °F
48 °F
0%
49%
Wednesday
Feb 8

Clouds
75 °F
56 °F
0%
56%
Thursday
Feb 9

Rain
68 °F
59 °F
100%
73%
Friday
Feb 10

Rain
68 °F
54 °F
100%
90%
Saturday
Feb 11

Rain
54 °F
40 °F
100%
77%
Sunday
Feb 12

Clouds
57 °F
38 °F
0%
48%
Monday
Feb 13

Clouds
61 °F
41 °F
0%
36%
Tuesday
Feb 14

Clouds
60 °F
47 °F
0%
50%
Wednesday
Feb 15

Rain
76 °F
56 °F
100%
78%
Thursday
Feb 16

Rain
79 °F
65 °F
60%
82%
Friday
Feb 17

Rain
79 °F
58 °F
93%
61%
Saturday
Feb 18

Clouds
61 °F
55 °F
18%
79%
Sunday
Feb 19

Clouds
69 °F
54 °F
0%
49%
Monday
Feb 20

Rain
63 °F
56 °F
93%
90%
Tuesday
Feb 21

Rain
69 °F
60 °F
74%
86%
Wednesday
Feb 22

Clouds
77 °F
59 °F
0%
53%

Temperature 8-14 Day Outlook



Precipitation 8-14 Day Outlook




Quick Links
Lake Eufaula News
Lake Eufaula Photos
Lake Eufaula Videos




About Us
Contact Us
Site Map
Search Site
Advertise With Us
   
www.LakeEufaula.info
THE LAKE EUFAULA WEBSITE

Copyright 2023, Lakes Online
Privacy    |    Legal